MTSAT-2

Last updated on Sun Dec 11 2016 00:16:34 GMT+0000 (Coordinated Universal Time)

1 28937U 06004A 16345.84195400 -.00000240 00000-0 00000+0 0 9995 2 28937 0.0469 96.4650 0003507 173.7713 257.8415 1.00273719 39503

Satellite not in orbit

MTSAT-2